Year,Month,Day,Hour,Minute,Value (Times are PST for temperature in C)
2011,09,27,00,00,12.20
2011,09,27,00,01,12.10
2011,09,27,00,02,12.10
2011,09,27,00,03,12.10
2011,09,27,00,04,12.10
2011,09,27,00,05,12.10
2011,09,27,00,06,12.10
2011,09,27,00,07,12.00
2011,09,27,00,08,12.00
2011,09,27,00,09,12.00
2011,09,27,00,10,12.00
2011,09,27,00,11,11.90
2011,09,27,00,12,11.90
2011,09,27,00,13,11.90
2011,09,27,00,14,11.90
2011,09,27,00,15,11.90
2011,09,27,00,16,11.90
2011,09,27,00,17,11.90
2011,09,27,00,18,11.90
2011,09,27,00,19,11.80
2011,09,27,00,20,11.80
2011,09,27,00,21,11.80
2011,09,27,00,22,11.80
2011,09,27,00,23,11.80
2011,09,27,00,24,11.80
2011,09,27,00,25,11.80
2011,09,27,00,26,11.70
2011,09,27,00,27,11.70
2011,09,27,00,28,11.70
2011,09,27,00,29,11.70
2011,09,27,00,30,11.70
2011,09,27,00,31,11.70
2011,09,27,00,32,11.70
2011,09,27,00,33,11.70
2011,09,27,00,34,11.70
2011,09,27,00,35,11.60
2011,09,27,00,36,11.60
2011,09,27,00,37,11.60
2011,09,27,00,38,11.60
2011,09,27,00,39,11.60
2011,09,27,00,40,11.60
2011,09,27,00,41,11.60
2011,09,27,00,42,11.60
2011,09,27,00,43,11.60
2011,09,27,00,44,11.60
2011,09,27,00,45,11.60
2011,09,27,00,46,11.50
2011,09,27,00,47,11.50
2011,09,27,00,48,11.60
2011,09,27,00,49,11.60
2011,09,27,00,50,11.60
2011,09,27,00,51,11.60
2011,09,27,00,52,11.60
2011,09,27,00,53,11.60
2011,09,27,00,54,11.60
2011,09,27,00,55,11.60
2011,09,27,00,56,11.60
2011,09,27,00,57,11.60
2011,09,27,00,58,11.60
2011,09,27,00,59,11.60
2011,09,27,01,00,11.60
2011,09,27,01,01,11.60
2011,09,27,01,02,11.50
2011,09,27,01,03,11.50
2011,09,27,01,04,11.50
2011,09,27,01,05,11.50
2011,09,27,01,06,11.40
2011,09,27,01,07,11.40
2011,09,27,01,08,11.40
2011,09,27,01,09,11.40
2011,09,27,01,10,11.40
2011,09,27,01,11,11.50
2011,09,27,01,12,11.40
2011,09,27,01,13,11.50
2011,09,27,01,14,11.50
2011,09,27,01,15,11.50
2011,09,27,01,16,11.50
2011,09,27,01,17,11.50
2011,09,27,01,18,11.60
2011,09,27,01,19,11.60
2011,09,27,01,20,11.60
2011,09,27,01,21,11.60
2011,09,27,01,22,11.70
2011,09,27,01,23,11.70
2011,09,27,01,24,11.70
2011,09,27,01,25,11.80
2011,09,27,01,26,11.80
2011,09,27,01,27,11.90
2011,09,27,01,28,11.90
2011,09,27,01,29,11.90
2011,09,27,01,30,12.00
2011,09,27,01,31,12.10
2011,09,27,01,32,12.10
2011,09,27,01,33,12.10
2011,09,27,01,34,12.10
2011,09,27,01,35,12.00
2011,09,27,01,36,12.00
2011,09,27,01,37,12.00
2011,09,27,01,38,12.10
2011,09,27,01,39,12.10
2011,09,27,01,40,12.10
2011,09,27,01,41,12.10
2011,09,27,01,42,12.10
2011,09,27,01,43,12.10
2011,09,27,01,44,12.10
2011,09,27,01,45,12.10
2011,09,27,01,46,12.10
2011,09,27,01,47,12.10
2011,09,27,01,48,12.10
2011,09,27,01,49,12.10
2011,09,27,01,50,12.10
2011,09,27,01,51,12.00
2011,09,27,01,52,12.00
2011,09,27,01,53,12.00
2011,09,27,01,54,11.90
2011,09,27,01,55,11.90
2011,09,27,01,56,11.90
2011,09,27,01,57,11.90
2011,09,27,01,58,11.90
2011,09,27,01,59,11.90
2011,09,27,02,00,11.90
2011,09,27,02,01,11.90
2011,09,27,02,02,11.90
2011,09,27,02,03,11.90
2011,09,27,02,04,11.90
2011,09,27,02,05,11.90
2011,09,27,02,06,11.90
2011,09,27,02,07,11.90
2011,09,27,02,08,11.90
2011,09,27,02,09,11.90
2011,09,27,02,10,11.90
2011,09,27,02,11,12.00
2011,09,27,02,12,12.00
2011,09,27,02,13,12.00
2011,09,27,02,14,12.00
2011,09,27,02,15,12.00
2011,09,27,02,16,12.00
2011,09,27,02,17,11.90
2011,09,27,02,18,11.90
2011,09,27,02,19,11.90
2011,09,27,02,20,11.90
2011,09,27,02,21,11.90
2011,09,27,02,22,11.90
2011,09,27,02,23,11.90
2011,09,27,02,24,11.90
2011,09,27,02,25,12.00
2011,09,27,02,26,12.00
2011,09,27,02,27,12.00
2011,09,27,02,28,12.00
2011,09,27,02,29,12.00
2011,09,27,02,30,12.00
2011,09,27,02,31,12.10
2011,09,27,02,32,12.00
2011,09,27,02,33,12.00
2011,09,27,02,34,12.10
2011,09,27,02,35,12.10
2011,09,27,02,36,12.20
2011,09,27,02,37,12.20
2011,09,27,02,38,12.30
2011,09,27,02,39,12.30
2011,09,27,02,40,12.40
2011,09,27,02,41,12.40
2011,09,27,02,42,12.40
2011,09,27,02,43,12.40
2011,09,27,02,44,12.40
2011,09,27,02,45,12.40
2011,09,27,02,46,12.40
2011,09,27,02,47,12.40
2011,09,27,02,48,12.30
2011,09,27,02,49,12.30
2011,09,27,02,50,12.30
2011,09,27,02,51,12.30
2011,09,27,02,52,12.30
2011,09,27,02,53,12.30
2011,09,27,02,54,12.30
2011,09,27,02,55,12.20
2011,09,27,02,56,12.20
2011,09,27,02,57,12.20
2011,09,27,02,58,12.20
2011,09,27,02,59,12.20
2011,09,27,03,00,12.20
2011,09,27,03,01,12.20
2011,09,27,03,02,12.10
2011,09,27,03,03,12.10
2011,09,27,03,04,12.10
2011,09,27,03,05,12.10
2011,09,27,03,06,12.00
2011,09,27,03,07,12.00
2011,09,27,03,08,11.90
2011,09,27,03,09,11.90
2011,09,27,03,10,11.80
2011,09,27,03,11,11.80
2011,09,27,03,12,11.80
2011,09,27,03,13,11.80
2011,09,27,03,14,11.70
2011,09,27,03,15,11.70
2011,09,27,03,16,11.70
2011,09,27,03,17,11.60
2011,09,27,03,18,11.60
2011,09,27,03,19,11.60
2011,09,27,03,20,11.60
2011,09,27,03,21,11.60
2011,09,27,03,22,11.50
2011,09,27,03,23,11.50
2011,09,27,03,24,11.50
2011,09,27,03,25,11.40
2011,09,27,03,26,11.40
2011,09,27,03,27,11.40
2011,09,27,03,28,11.40
2011,09,27,03,29,11.40
2011,09,27,03,30,11.40
2011,09,27,03,31,11.40
2011,09,27,03,32,11.30
2011,09,27,03,33,11.30
2011,09,27,03,34,11.30
2011,09,27,03,35,11.30
2011,09,27,03,36,11.30
2011,09,27,03,37,11.30
2011,09,27,03,38,11.30
2011,09,27,03,39,11.30
2011,09,27,03,40,11.30
2011,09,27,03,41,11.30
2011,09,27,03,42,11.30
2011,09,27,03,43,11.30
2011,09,27,03,44,11.30
2011,09,27,03,45,11.30
2011,09,27,03,46,11.30
2011,09,27,03,47,11.30
2011,09,27,03,48,11.30
2011,09,27,03,49,11.30
2011,09,27,03,50,11.30
2011,09,27,03,51,11.30
2011,09,27,03,52,11.30
2011,09,27,03,53,11.30
2011,09,27,03,54,11.30
2011,09,27,03,55,11.20
2011,09,27,03,56,11.20
2011,09,27,03,57,11.20
2011,09,27,03,58,11.20
2011,09,27,03,59,11.20
2011,09,27,04,00,11.30
2011,09,27,04,01,11.30
2011,09,27,04,02,11.30
2011,09,27,04,03,11.30
2011,09,27,04,04,11.30
2011,09,27,04,05,11.30
2011,09,27,04,06,11.30
2011,09,27,04,07,11.40
2011,09,27,04,08,11.40
2011,09,27,04,09,11.40
2011,09,27,04,10,11.40
2011,09,27,04,11,11.40
2011,09,27,04,12,11.40
2011,09,27,04,13,11.40
2011,09,27,04,14,11.40
2011,09,27,04,15,11.40
2011,09,27,04,16,11.50
2011,09,27,04,17,11.50
2011,09,27,04,18,11.50
2011,09,27,04,19,11.50
2011,09,27,04,20,11.60
2011,09,27,04,21,11.60
2011,09,27,04,22,11.60
2011,09,27,04,23,11.60
2011,09,27,04,24,11.60
2011,09,27,04,25,11.70
2011,09,27,04,26,11.70
2011,09,27,04,27,11.70
2011,09,27,04,28,11.70
2011,09,27,04,29,11.70
2011,09,27,04,30,11.70
2011,09,27,04,31,11.70
2011,09,27,04,32,11.70
2011,09,27,04,33,11.70
2011,09,27,04,34,11.70
2011,09,27,04,35,11.70
2011,09,27,04,36,11.70
2011,09,27,04,37,11.70
2011,09,27,04,38,11.70
2011,09,27,04,39,11.70
2011,09,27,08,36,12.70
2011,09,27,08,37,12.70
2011,09,27,08,38,12.60
2011,09,27,08,39,12.60
2011,09,27,08,40,12.50
2011,09,27,08,41,12.50
2011,09,27,08,42,12.50
2011,09,27,08,43,12.40
2011,09,27,08,44,12.50
2011,09,27,08,45,12.50
2011,09,27,08,46,12.60
2011,09,27,08,47,12.60
2011,09,27,08,48,12.80
2011,09,27,08,49,12.80
2011,09,27,08,50,12.90
2011,09,27,08,51,12.90
2011,09,27,08,52,13.00
2011,09,27,08,53,13.00
2011,09,27,08,54,13.10
2011,09,27,08,55,13.20
2011,09,27,08,56,13.20
2011,09,27,08,57,13.30
2011,09,27,08,58,13.40
2011,09,27,08,59,13.50
2011,09,27,09,00,13.60
2011,09,27,09,01,13.60
2011,09,27,09,02,13.70
2011,09,27,09,03,13.80
2011,09,27,09,04,13.90
2011,09,27,09,05,14.00
2011,09,27,09,06,14.10
2011,09,27,09,07,14.20
2011,09,27,09,08,14.20
2011,09,27,09,09,14.20
2011,09,27,09,10,14.30
2011,09,27,09,11,14.30
2011,09,27,09,12,14.40
2011,09,27,09,13,14.40
2011,09,27,09,14,14.40
2011,09,27,09,15,14.40
2011,09,27,09,16,14.40
2011,09,27,09,17,14.50
2011,09,27,09,18,14.60
2011,09,27,09,19,14.60
2011,09,27,09,20,14.70
2011,09,27,09,21,14.80
2011,09,27,09,22,14.80
2011,09,27,09,23,14.90
2011,09,27,09,24,15.00
2011,09,27,09,25,15.00
2011,09,27,09,26,15.00
2011,09,27,09,27,15.00
2011,09,27,09,28,15.00
2011,09,27,09,29,15.00
2011,09,27,09,30,15.10
2011,09,27,09,31,15.10
2011,09,27,09,32,15.10
2011,09,27,09,33,15.00
2011,09,27,09,34,15.00
2011,09,27,09,35,15.00
2011,09,27,09,36,15.00
2011,09,27,09,37,15.00
2011,09,27,09,38,15.00
2011,09,27,09,39,14.80
2011,09,27,09,40,14.70
2011,09,27,09,41,14.70
2011,09,27,09,42,14.60
2011,09,27,09,43,14.60
2011,09,27,09,44,14.60
2011,09,27,09,45,14.60
2011,09,27,09,46,14.60
2011,09,27,09,47,14.60
2011,09,27,09,48,14.50
2011,09,27,09,49,14.50
2011,09,27,09,50,14.40
2011,09,27,09,51,14.30
2011,09,27,09,52,14.30
2011,09,27,09,53,14.20
2011,09,27,09,54,14.10
2011,09,27,09,55,14.00
2011,09,27,09,56,13.90
2011,09,27,09,57,13.80
2011,09,27,09,58,13.80
2011,09,27,09,59,13.80
2011,09,27,10,00,13.80
2011,09,27,10,01,13.80
2011,09,27,10,02,13.90
2011,09,27,10,03,13.90
2011,09,27,10,04,14.00
2011,09,27,10,05,14.10
2011,09,27,10,06,14.20
2011,09,27,10,07,14.30
2011,09,27,10,08,14.40
2011,09,27,10,09,14.50
2011,09,27,10,10,14.60
2011,09,27,10,11,14.60
2011,09,27,10,12,14.70
2011,09,27,10,13,14.80
2011,09,27,10,14,14.90
2011,09,27,10,15,14.90
2011,09,27,10,16,15.00
2011,09,27,10,17,15.00
2011,09,27,10,18,15.00
2011,09,27,10,19,15.00
2011,09,27,10,20,15.20
2011,09,27,10,21,15.30
2011,09,27,10,22,15.30
2011,09,27,10,23,15.30
2011,09,27,10,24,15.40
2011,09,27,10,25,15.40
2011,09,27,10,26,15.40
2011,09,27,10,27,15.40
2011,09,27,10,28,15.30
2011,09,27,10,29,15.30
2011,09,27,10,30,15.30
2011,09,27,10,31,15.20
2011,09,27,10,32,15.30
2011,09,27,10,33,15.40
2011,09,27,10,34,15.40
2011,09,27,10,35,15.50
2011,09,27,10,36,15.50
2011,09,27,10,37,15.50
2011,09,27,10,38,15.50
2011,09,27,10,39,15.50
2011,09,27,10,40,15.50
2011,09,27,10,41,15.60
2011,09,27,10,42,15.60
2011,09,27,10,43,15.60
2011,09,27,10,44,15.70
2011,09,27,10,45,15.70
2011,09,27,10,46,15.70
2011,09,27,10,47,15.70
2011,09,27,10,48,15.80
2011,09,27,10,49,15.80
2011,09,27,10,50,15.90
2011,09,27,10,51,15.90
2011,09,27,10,52,15.90
2011,09,27,10,53,15.90
2011,09,27,10,54,15.90
2011,09,27,10,55,15.90
2011,09,27,10,56,16.00
2011,09,27,10,57,16.00
2011,09,27,10,58,16.00
2011,09,27,10,59,16.00
2011,09,27,11,00,15.90
2011,09,27,11,01,15.80
2011,09,27,11,02,15.80
2011,09,27,11,03,15.70
2011,09,27,11,04,15.80
2011,09,27,11,05,15.80
2011,09,27,11,06,15.80
2011,09,27,11,07,15.80
2011,09,27,11,08,15.80
2011,09,27,11,09,15.80
2011,09,27,11,10,15.80
2011,09,27,11,11,15.70
2011,09,27,11,12,15.60
2011,09,27,11,13,15.50
2011,09,27,11,14,15.50
2011,09,27,11,15,15.60
2011,09,27,11,16,15.60
2011,09,27,11,17,15.70
2011,09,27,11,18,15.90
2011,09,27,11,19,16.00
2011,09,27,11,20,16.20
2011,09,27,11,21,16.30
2011,09,27,11,22,16.40
2011,09,27,11,23,16.50
2011,09,27,11,24,16.60
2011,09,27,11,25,16.60
2011,09,27,11,26,16.60
2011,09,27,11,27,16.60
2011,09,27,11,28,16.60
2011,09,27,11,29,16.60
2011,09,27,11,30,16.60
2011,09,27,11,31,16.70
2011,09,27,11,32,16.70
2011,09,27,11,33,16.80
2011,09,27,11,34,16.70
2011,09,27,11,35,16.60
2011,09,27,11,36,16.60
2011,09,27,11,37,16.60
2011,09,27,11,38,16.60
2011,09,27,11,39,16.60
2011,09,27,11,40,16.70
2011,09,27,11,41,16.60
2011,09,27,11,42,16.70
2011,09,27,11,43,16.70
2011,09,27,11,44,16.70
2011,09,27,11,45,16.70
2011,09,27,11,46,16.60
2011,09,27,11,47,16.60
2011,09,27,11,48,16.60
2011,09,27,11,49,16.60
2011,09,27,11,50,16.70
2011,09,27,11,51,16.70
2011,09,27,11,52,16.70
2011,09,27,11,53,16.70
2011,09,27,11,54,16.70
2011,09,27,11,55,16.70
2011,09,27,11,56,16.80
2011,09,27,11,57,16.80
2011,09,27,11,58,16.80
2011,09,27,11,59,16.90
2011,09,27,12,00,16.90
2011,09,27,12,01,16.90
2011,09,27,12,02,17.00
2011,09,27,12,03,17.00
2011,09,27,12,04,17.00
2011,09,27,12,05,17.00
2011,09,27,12,06,17.00
2011,09,27,12,07,17.10
2011,09,27,12,08,17.10
2011,09,27,12,09,17.10
2011,09,27,12,10,17.10
2011,09,27,12,11,17.10
2011,09,27,12,12,17.10
2011,09,27,12,13,17.20
2011,09,27,12,14,17.20
2011,09,27,12,15,17.20
2011,09,27,12,16,17.20
2011,09,27,12,17,17.10
2011,09,27,12,18,17.10
2011,09,27,12,19,17.00
2011,09,27,12,20,17.00
2011,09,27,12,21,17.10
2011,09,27,12,22,17.10
2011,09,27,12,23,17.20
2011,09,27,12,24,17.20
2011,09,27,12,25,17.30
2011,09,27,12,26,17.40
2011,09,27,12,27,17.40
2011,09,27,12,28,17.40
2011,09,27,12,29,17.40
2011,09,27,12,30,17.50
2011,09,27,12,31,17.60
2011,09,27,12,32,17.60
2011,09,27,12,33,17.60
2011,09,27,12,34,17.60
2011,09,27,12,35,17.50
2011,09,27,12,36,17.40
2011,09,27,12,37,17.40
2011,09,27,12,38,17.40
2011,09,27,12,39,17.40
2011,09,27,12,40,17.40
2011,09,27,12,41,17.40
2011,09,27,12,42,17.50
2011,09,27,12,43,17.50
2011,09,27,12,44,17.50
2011,09,27,12,45,17.60
2011,09,27,12,46,17.60
2011,09,27,12,47,17.50
2011,09,27,12,48,17.40
2011,09,27,12,49,17.40
2011,09,27,12,50,17.30
2011,09,27,12,51,17.30
2011,09,27,12,52,17.30
2011,09,27,12,53,17.30
2011,09,27,12,54,17.30
2011,09,27,12,55,17.30
2011,09,27,12,56,17.40
2011,09,27,12,57,17.40
2011,09,27,12,58,17.50
2011,09,27,12,59,17.50
2011,09,27,13,00,17.60
2011,09,27,13,01,17.50
2011,09,27,13,02,17.50
2011,09,27,13,03,17.50
2011,09,27,13,04,17.40
2011,09,27,13,05,17.50
2011,09,27,13,06,17.60
2011,09,27,13,07,17.70
2011,09,27,13,08,17.80
2011,09,27,13,09,17.90
2011,09,27,13,10,17.90
2011,09,27,13,11,18.00
2011,09,27,13,12,18.10
2011,09,27,13,13,18.10
2011,09,27,13,14,18.10
2011,09,27,13,15,18.00
2011,09,27,13,16,17.90
2011,09,27,13,17,17.80
2011,09,27,13,18,17.70
2011,09,27,13,19,17.70
2011,09,27,13,20,17.70
2011,09,27,13,21,17.70
2011,09,27,13,22,17.70
2011,09,27,13,23,17.70
2011,09,27,13,24,17.80
2011,09,27,13,25,17.80
2011,09,27,13,26,17.90
2011,09,27,13,27,18.00
2011,09,27,13,28,18.10
2011,09,27,13,29,18.00
2011,09,27,13,30,18.00
2011,09,27,13,31,17.90
2011,09,27,13,32,17.70
2011,09,27,13,33,17.60
2011,09,27,13,34,17.40
2011,09,27,13,35,17.30
2011,09,27,13,36,17.30
2011,09,27,13,37,17.20
2011,09,27,13,38,17.10
2011,09,27,13,39,17.10
2011,09,27,13,40,17.20
2011,09,27,13,41,17.20
2011,09,27,13,42,17.20
2011,09,27,13,43,17.30
2011,09,27,13,44,17.30
2011,09,27,13,45,17.30
2011,09,27,13,46,17.40
2011,09,27,13,47,17.40
2011,09,27,13,48,17.30
2011,09,27,13,49,17.30
2011,09,27,13,50,17.30
2011,09,27,13,51,17.30
2011,09,27,13,52,17.30
2011,09,27,13,53,17.30
2011,09,27,13,54,17.40
2011,09,27,13,55,17.50
2011,09,27,13,56,17.50
2011,09,27,13,57,17.60
2011,09,27,13,58,17.60
2011,09,27,13,59,17.60
2011,09,27,14,00,17.50
2011,09,27,14,01,17.60
2011,09,27,14,02,17.60
2011,09,27,14,03,17.60
2011,09,27,14,04,17.50
2011,09,27,14,05,17.40
2011,09,27,14,06,17.40
2011,09,27,14,07,17.50
2011,09,27,14,08,17.50
2011,09,27,14,09,17.60
2011,09,27,14,10,17.70
2011,09,27,14,11,17.80
2011,09,27,14,12,17.80
2011,09,27,14,13,17.90
2011,09,27,14,14,17.90
2011,09,27,14,15,17.90
2011,09,27,14,16,17.90
2011,09,27,14,17,17.80
2011,09,27,14,18,17.80
2011,09,27,14,19,17.90
2011,09,27,14,20,18.00
2011,09,27,14,21,18.00
2011,09,27,14,22,18.10
2011,09,27,14,23,18.10
2011,09,27,14,24,18.00
2011,09,27,14,25,17.90
2011,09,27,14,26,17.80
2011,09,27,14,27,17.80
2011,09,27,14,28,17.70
2011,09,27,14,29,17.60
2011,09,27,14,30,17.50
2011,09,27,14,31,17.40
2011,09,27,14,32,17.30
2011,09,27,14,33,17.20
2011,09,27,14,34,17.10
2011,09,27,14,35,17.10
2011,09,27,14,36,17.00
2011,09,27,14,37,17.00
2011,09,27,14,38,17.00
2011,09,27,14,39,17.00
2011,09,27,14,40,16.90
2011,09,27,14,41,16.90
2011,09,27,14,42,16.90
2011,09,27,14,43,16.80
2011,09,27,14,44,16.70
2011,09,27,14,45,16.70
2011,09,27,14,46,16.60
2011,09,27,14,47,16.60
2011,09,27,14,48,16.60
2011,09,27,14,49,16.60
2011,09,27,14,50,16.50
2011,09,27,14,51,16.50
2011,09,27,14,52,16.50
2011,09,27,14,53,16.50
2011,09,27,14,54,16.50
2011,09,27,14,55,16.50
2011,09,27,14,56,16.50
2011,09,27,14,57,16.50
2011,09,27,14,58,16.50
2011,09,27,14,59,16.40
2011,09,27,15,00,16.40
2011,09,27,15,01,16.40
2011,09,27,15,02,16.30
2011,09,27,15,03,16.30
2011,09,27,15,04,16.30
2011,09,27,15,05,16.30
2011,09,27,15,06,16.20
2011,09,27,15,07,16.20
2011,09,27,15,08,16.20
2011,09,27,15,09,16.20
2011,09,27,15,10,16.20
2011,09,27,15,11,16.30
2011,09,27,15,12,16.30
2011,09,27,15,13,16.30
2011,09,27,15,14,16.30
2011,09,27,15,15,16.40
2011,09,27,15,16,16.40
2011,09,27,15,17,16.40
2011,09,27,15,18,16.50
2011,09,27,15,19,16.50
2011,09,27,15,20,16.60
2011,09,27,15,21,16.60
2011,09,27,15,22,16.60
2011,09,27,15,23,16.60
2011,09,27,15,24,16.60
2011,09,27,15,25,16.70
2011,09,27,15,26,16.70
2011,09,27,15,27,16.70
2011,09,27,15,28,16.70
2011,09,27,15,29,16.80
2011,09,27,15,30,16.80
2011,09,27,15,31,16.80
2011,09,27,15,32,16.80
2011,09,27,15,33,16.90
2011,09,27,15,34,16.90
2011,09,27,15,35,16.90
2011,09,27,15,36,17.00
2011,09,27,15,37,17.00
2011,09,27,15,38,17.10
2011,09,27,15,39,17.10
2011,09,27,15,40,17.10
2011,09,27,15,41,17.20
2011,09,27,15,42,17.20
2011,09,27,15,43,17.20
2011,09,27,15,44,17.30
2011,09,27,15,45,17.30
2011,09,27,15,46,17.30
2011,09,27,15,47,17.30
2011,09,27,15,48,17.30
2011,09,27,15,49,17.20
2011,09,27,15,50,17.10
2011,09,27,15,51,17.10
2011,09,27,15,52,17.10
2011,09,27,15,53,17.10
2011,09,27,15,54,17.00
2011,09,27,15,55,16.90
2011,09,27,15,56,16.90
2011,09,27,15,57,16.80
2011,09,27,15,58,16.80
2011,09,27,15,59,16.70
2011,09,27,16,00,16.70
2011,09,27,16,01,16.60
2011,09,27,16,02,16.60
2011,09,27,16,03,16.50
2011,09,27,16,04,16.50
2011,09,27,16,05,16.50
2011,09,27,16,06,16.40
2011,09,27,16,07,16.40
2011,09,27,16,08,16.40
2011,09,27,16,09,16.40
2011,09,27,16,10,16.40
2011,09,27,16,11,16.50
2011,09,27,16,12,16.60
2011,09,27,16,13,16.70
2011,09,27,16,14,16.70
2011,09,27,16,15,16.80
2011,09,27,16,16,16.80
2011,09,27,16,17,16.90
2011,09,27,16,18,17.00
2011,09,27,16,19,17.10
2011,09,27,16,20,17.10
2011,09,27,16,21,17.10
2011,09,27,16,22,17.20
2011,09,27,16,23,17.20
2011,09,27,16,24,17.30
2011,09,27,16,25,17.30
2011,09,27,16,26,17.40
2011,09,27,16,27,17.40
2011,09,27,16,28,17.50
2011,09,27,16,29,17.50
2011,09,27,16,30,17.60
2011,09,27,16,31,17.70
2011,09,27,16,32,17.70
2011,09,27,16,33,17.70
2011,09,27,16,34,17.80
2011,09,27,16,35,17.80
2011,09,27,16,36,17.80
2011,09,27,16,37,17.80
2011,09,27,16,38,17.80
2011,09,27,16,39,17.80
2011,09,27,16,40,17.80
2011,09,27,16,41,17.80
2011,09,27,16,42,17.80
2011,09,27,16,43,17.70
2011,09,27,16,44,17.70
2011,09,27,16,45,17.60
2011,09,27,16,46,17.60
2011,09,27,16,47,17.60
2011,09,27,16,48,17.60
2011,09,27,16,49,17.60
2011,09,27,16,50,17.60
2011,09,27,16,51,17.70
2011,09,27,16,52,17.70
2011,09,27,16,53,17.70
2011,09,27,16,54,17.80
2011,09,27,16,55,17.80
2011,09,27,16,56,17.70
2011,09,27,16,57,17.60
2011,09,27,16,58,17.40
2011,09,27,16,59,17.30
2011,09,27,17,00,17.20
2011,09,27,17,01,17.10
2011,09,27,17,02,17.00
2011,09,27,17,03,16.90
2011,09,27,17,04,16.90
2011,09,27,17,05,16.90
2011,09,27,17,06,16.80
2011,09,27,17,07,16.80
2011,09,27,17,08,16.70
2011,09,27,17,09,16.70
2011,09,27,17,10,16.70
2011,09,27,17,11,16.70
2011,09,27,17,12,16.70
2011,09,27,17,13,16.70
2011,09,27,17,14,16.70
2011,09,27,17,15,16.60
2011,09,27,17,16,16.60
2011,09,27,17,17,16.60
2011,09,27,17,18,16.50
2011,09,27,17,19,16.50
2011,09,27,17,20,16.50
2011,09,27,17,21,16.50
2011,09,27,17,22,16.40
2011,09,27,17,23,16.40
2011,09,27,17,24,16.30
2011,09,27,17,25,16.20
2011,09,27,17,26,16.20
2011,09,27,17,27,16.20
2011,09,27,17,28,16.10
2011,09,27,17,29,16.10
2011,09,27,17,30,16.10
2011,09,27,17,31,16.00
2011,09,27,17,32,16.00
2011,09,27,17,33,15.90
2011,09,27,17,34,15.90
2011,09,27,17,35,15.90
2011,09,27,17,36,15.90
2011,09,27,17,37,15.90
2011,09,27,17,38,15.90
2011,09,27,17,39,15.90
2011,09,27,17,40,15.90
2011,09,27,17,41,15.80
2011,09,27,17,42,15.80
2011,09,27,17,43,15.80
2011,09,27,17,44,15.80
2011,09,27,17,45,15.80
2011,09,27,17,46,15.80
2011,09,27,17,47,15.70
2011,09,27,17,48,15.70
2011,09,27,17,49,15.60
2011,09,27,17,50,15.50
2011,09,27,17,51,15.40
2011,09,27,17,52,15.30
2011,09,27,17,53,15.20
2011,09,27,17,54,15.10
2011,09,27,17,55,15.00
2011,09,27,17,56,15.00
2011,09,27,17,57,15.00
2011,09,27,17,58,15.00
2011,09,27,17,59,15.00
2011,09,27,18,00,15.00
2011,09,27,18,01,15.00
2011,09,27,18,02,15.00
2011,09,27,18,03,15.00
2011,09,27,18,04,15.00
2011,09,27,18,05,15.10
2011,09,27,18,06,15.10
2011,09,27,18,07,15.10
2011,09,27,18,08,15.10
2011,09,27,18,09,15.10
2011,09,27,18,10,15.00
2011,09,27,18,11,15.00
2011,09,27,18,12,15.00
2011,09,27,18,13,15.00
2011,09,27,18,14,15.00
2011,09,27,18,15,15.00
2011,09,27,18,16,15.00
2011,09,27,18,17,15.00
2011,09,27,18,18,15.00
2011,09,27,18,19,15.00
2011,09,27,18,20,15.00
2011,09,27,18,21,15.00
2011,09,27,18,22,15.00
2011,09,27,18,23,15.00
2011,09,27,18,24,15.00
2011,09,27,18,25,15.00
2011,09,27,18,26,15.00
2011,09,27,18,27,15.00
2011,09,27,18,28,15.00
2011,09,27,18,29,15.00
2011,09,27,18,30,15.00
2011,09,27,18,31,15.00
2011,09,27,18,32,15.00
2011,09,27,18,33,15.00
2011,09,27,18,34,15.00
2011,09,27,18,35,15.00
2011,09,27,18,36,15.00
2011,09,27,18,37,14.80
2011,09,27,18,38,14.80
2011,09,27,18,39,14.70
2011,09,27,18,40,14.70
2011,09,27,18,41,14.60
2011,09,27,18,42,14.60
2011,09,27,18,43,14.50
2011,09,27,18,44,14.40
2011,09,27,18,45,14.40
2011,09,27,18,46,14.40
2011,09,27,18,47,14.30
2011,09,27,18,48,14.20
2011,09,27,18,49,14.10
2011,09,27,18,50,14.10
2011,09,27,18,51,14.00
2011,09,27,18,52,13.90
2011,09,27,18,53,13.80
2011,09,27,18,54,13.80
2011,09,27,18,55,13.70
2011,09,27,18,56,13.60
2011,09,27,18,57,13.60
2011,09,27,18,58,13.50
2011,09,27,18,59,13.40
2011,09,27,19,00,13.40
2011,09,27,19,01,13.30
2011,09,27,19,02,13.30
2011,09,27,19,03,13.30
2011,09,27,19,04,13.30
2011,09,27,19,05,13.30
2011,09,27,19,06,13.30
2011,09,27,19,07,13.20
2011,09,27,19,08,13.20
2011,09,27,19,09,13.20
2011,09,27,19,10,13.20
2011,09,27,19,11,13.10
2011,09,27,19,12,13.10
2011,09,27,19,13,13.10
2011,09,27,19,14,13.10
2011,09,27,19,15,13.10
2011,09,27,19,16,13.00
2011,09,27,19,17,13.00
2011,09,27,19,18,13.00
2011,09,27,19,19,13.00
2011,09,27,19,20,13.00
2011,09,27,19,21,13.00
2011,09,27,19,22,13.00
2011,09,27,19,23,13.00
2011,09,27,19,24,13.00
2011,09,27,19,25,13.00
2011,09,27,19,26,13.00
2011,09,27,19,27,13.10
2011,09,27,19,28,13.10
2011,09,27,19,29,13.10
2011,09,27,19,30,13.10
2011,09,27,19,31,13.00
2011,09,27,19,32,13.00
2011,09,27,19,33,13.00
2011,09,27,19,34,12.90
2011,09,27,19,35,12.90
2011,09,27,19,36,12.90
2011,09,27,19,37,12.90
2011,09,27,19,38,12.90
2011,09,27,19,39,12.90
2011,09,27,19,40,12.90
2011,09,27,19,41,12.90
2011,09,27,19,42,12.90
2011,09,27,19,43,12.90
2011,09,27,19,44,12.90
2011,09,27,19,45,12.90
2011,09,27,19,46,12.90
2011,09,27,19,47,12.90
2011,09,27,19,48,12.90
2011,09,27,19,49,12.80
2011,09,27,19,50,12.80
2011,09,27,19,51,12.80
2011,09,27,19,52,12.80
2011,09,27,19,53,12.80
2011,09,27,19,54,12.80
2011,09,27,19,55,12.80
2011,09,27,19,56,12.80
2011,09,27,19,57,12.70
2011,09,27,19,58,12.70
2011,09,27,19,59,12.70
2011,09,27,20,00,12.70
2011,09,27,20,01,12.70
2011,09,27,20,02,12.70
2011,09,27,20,03,12.70
2011,09,27,20,04,12.70
2011,09,27,20,05,12.80
2011,09,27,20,06,12.80
2011,09,27,20,07,12.80
2011,09,27,20,08,12.70
2011,09,27,20,09,12.70
2011,09,27,20,10,12.70
2011,09,27,20,11,12.70
2011,09,27,20,12,12.70
2011,09,27,20,13,12.70
2011,09,27,20,14,12.70
2011,09,27,20,15,12.70
2011,09,27,20,16,12.70
2011,09,27,20,17,12.70
2011,09,27,20,18,12.70
2011,09,27,20,19,12.70
2011,09,27,20,20,12.60
2011,09,27,20,21,12.60
2011,09,27,20,22,12.60
2011,09,27,20,23,12.50
2011,09,27,20,24,12.50
2011,09,27,20,25,12.50
2011,09,27,20,26,12.40
2011,09,27,20,27,12.40
2011,09,27,20,28,12.30
2011,09,27,20,29,12.30
2011,09,27,20,30,12.30
2011,09,27,20,31,12.30
2011,09,27,20,32,12.30
2011,09,27,20,33,12.30
2011,09,27,20,34,12.30
2011,09,27,20,35,12.30
2011,09,27,20,36,12.30
2011,09,27,20,37,12.30
2011,09,27,20,38,12.30
2011,09,27,20,39,12.20
2011,09,27,20,40,12.20
2011,09,27,20,41,12.20
2011,09,27,20,42,12.20
2011,09,27,20,43,12.20
2011,09,27,20,44,12.20
2011,09,27,20,45,12.20
2011,09,27,20,46,12.20
2011,09,27,20,47,12.10
2011,09,27,20,48,12.10
2011,09,27,20,49,12.10
2011,09,27,20,50,12.00
2011,09,27,20,51,11.90
2011,09,27,20,52,11.90
2011,09,27,20,53,11.80
2011,09,27,20,54,11.80
2011,09,27,20,55,11.70
2011,09,27,20,56,11.70
2011,09,27,20,57,11.60
2011,09,27,20,58,11.60
2011,09,27,20,59,11.60
2011,09,27,21,00,11.50
2011,09,27,21,01,11.50
2011,09,27,21,02,11.40
2011,09,27,21,03,11.40
2011,09,27,21,04,11.40
2011,09,27,21,05,11.30
2011,09,27,21,06,11.30
2011,09,27,21,07,11.30
2011,09,27,21,08,11.30
2011,09,27,21,09,11.30
2011,09,27,21,10,11.30
2011,09,27,21,11,11.30
2011,09,27,21,12,11.30
2011,09,27,21,13,11.20
2011,09,27,21,14,11.20
2011,09,27,21,15,11.20